{"data":{"norad_id":48157,"epoch":"2026-05-24T23:49:39.923616Z","epoch_age_seconds":72806,"freshness":"FRESH","line1":"1 48157U 21028A   26144.99282319 -.00000017  00000+0  27886-4 0  9991","line2":"2 48157  99.5277 158.8219 0046814 146.8857 213.5238 13.77599309256316","mean_motion":13.77599309,"eccentricity":0.0046814,"inclination_deg":99.5277,"raan_deg":158.8219,"arg_perigee_deg":146.8857,"mean_anomaly_deg":213.5238,"bstar":2.7886e-5,"rev_number":25631,"period_min":104.52966915651,"perigee_km":938.00316366195,"apogee_km":1006.8249028762,"semimajor_km":7350.5510332691,"source":"CELESTRAK","updated_at":"2026-05-25T13:37:56.706130Z"}}